sat.trackr.live / text

‹ back to catalog

UNKNOWN

NORAD 81279

UNKNOWN UNKNOWN UNKNOWN

§ Identity

Operator
Country
Launch date
Launch site
Launch vehicle
Mass (kg)
RCS (m²)

External: N2YO · Heavens-Above

§ Orbital elements

Epoch: 2026-05-24T02:28:03.146880Z

Period
101.38 min
Inclination
98.1043°
Eccentricity
0.0204944
Mean motion
14.20344252 rev/d
Perigee alt
676.6 km
Apogee alt
971.8 km
Semi-major
7,202.3 km
B*
2.5844e-4
RAAN
195.3398°
Arg perigee
268.9071°
Mean anomaly
88.8623°
Rev number
48,564

§ Raw data

UNKNOWN1 81279U          26144.10281420  .00000640  00000+0  25844-3 0  99972 81279  98.1043 195.3398 0204944 268.9071  88.8623 14.20344252485647

JSON: /api/v1/satellites/81279 · /tle

For live sub-satellite position, see the globe view (requires WebGL).

§ Visibility from observer

Set your observer location to see the next 7 days of passes ≥ 10°. The values pass through the URL so the page stays shareable.

No JS? Fill the form by hand. The geolocation button needs JavaScript.